Back to catalog

STARLINK-32285

AliveCommunicationsVLEO
NORAD 60355·PAYLOAD·🇺🇸 United States

Launched Aug 4, 2024 from Vandenberg Space Force Base

Loading…

Next Passes (next 24 hours)

TLE

FreshSource: CelesTrak SupGP

Epoch: Sep 14, 2026, 21:05 UTC

1 60355C 24138A   26257.87895833 -.00057795  00000+0 -17070-2 0  2578
2 60355  53.1558 147.7744 0001301  93.9217  13.1680 15.34429960    11

Track STARLINK-32285 in real time with AllMySat

Download on the App Store